Regional Weather Roundup
Issued by NWS

Home | Current Version | Previous Version | Text Only | Print | Product List | Glossary On
Versions: 1 2 3 4 5 6 7 8 9 10 11 12 13 14 15 16 17 18 19 20 21 22 23 24 25 26 27 28 29 30 31 32 33 34 35 36 37 38 39 40 41 42 43 44 45 46 47 48 49 50
000
ASUS44 KOUN 240510
RWROK

WEATHER ROUNDUP FOR OKLAHOMA
NATIONAL WEATHER SERVICE NORMAN OK
1200 AM CDT THU APR 24 2014

NOTE: "FAIR" INDICATES FEW OR NO CLOUDS BELOW 12,000 FEET WITH NO
      SIGNIFICANT WEATHER AND/OR OBSTRUCTIONS TO VISIBILITY.

OKZ001>007-009>012-014-015-017-240600-
NORTHWEST OKLAHOMA AND THE PANHANDLE

CITY           SKY/WX    TMP DP  RH WIND       PRES   REMARKS
GAGE           CLEAR     65  56  72 SE32G47   29.58S
ENID/VANCE AFB MOCLDY    64  64 100 SE18      29.63S
$$

OKZ016-021>023-033>039-044-045-240600-
SOUTHWEST OKLAHOMA

CITY           SKY/WX    TMP DP  RH WIND       PRES   REMARKS
LAWTON/REGL    CLOUDY    74  60  61 SE15G25   29.68R
LAWTON/FT SILL CLOUDY    72  60  65 SE15      29.69S
FREDERICK      CLOUDY    71  60  68 SE25G32   29.62F
CLINTON        CLEAR     66  58  75 SE24G30   29.67S
HOBART         PTCLDY    68  59  73 SE18G25   29.66F
ALTUS AFB      PTCLDY    71  60  66 SE25G31   29.63F
$$

OKZ018>020-024>031-240600-
CENTRAL OKLAHOMA

CITY           SKY/WX    TMP DP  RH WIND       PRES   REMARKS
OKLAHOMA CITY  CLOUDY    68  60  75 E20G28    29.70F THUNDER
OKC/WILEY POST CLOUDY    68  57  68 SE26G38   29.69F
OKC/TINKER AFB CLOUDY    66  63  88 E10       29.74F
STILLWATER     LGT RAIN  66  62  87 SE30      29.63F
GUTHRIE        CLOUDY    70  61  73 SE18G35   29.62F
$$

OKZ008-013-054>072-240600-
NORTHEAST OKLAHOMA

CITY           SKY/WX    TMP DP  RH WIND       PRES   REMARKS
TULSA          CLOUDY    74  58  57 S15       29.75F
TULSA/JONES    CLOUDY    73  57  57 S7        29.76F
PONCA CITY     CLOUDY    67  59  75 SE25G44   29.60F
BARTLESVILLE   CLOUDY    74  56  53 S14G22    29.75F
MUSKOGEE       CLOUDY    68  56  65 SE9       29.80F
$$

OKZ032-040>043-046>053-073>077-240600-
SOUTH CENTRAL/SOUTHEAST OKLAHOMA

CITY           SKY/WX    TMP DP  RH WIND       PRES   REMARKS
ARDMORE/DWNTWN   N/A     68  63  83 S17G32    29.71F
MCALESTER      CLOUDY    73  55  53 SE8G17    29.79F
$$




USA.gov is the U.S. government's official web portal to all federal, state and local government web resources and services.